Probability
0 0 0 0 0 0 0 0 0 0 0 0 0 0 0 0 0 0 0 0 0 0 0 0 0 0 0 0 0 0 0 0 0 0 0 0 0 0 0 0 0 0 0 0
0 0 0 0 0 0 0 0 0 0 0 0 0 0 0 0 0 0 0 0 0 0 0 0 0 0 0 0 0 0 0 0 0 0 0 0 0 0 0 0 0 0 0 0
0 0 0 0 0 0 0 0 0 0 0 0 0 0 0 0 0 0 0 0 0 0 0 0 0 0 0 0 0 0 0 0 0 0 0 0 0 0 0 0 0 0 0 0
0 0 0 0 0 0 0 0 0 0 0 0 0 0 0 0 0 0 0 0 0 0 0 0 0 0 0 0 0 0 0 0 0 0 0 0 0 0 0 0 0 0 0 0
0 0 0 0 0 0 0 0 0 0 0 0 0 0 0 0 0 0 0 0 0 0 0 0 0 0 0 0 0 0 0 0 0 0 0 0 0 0 0 0 0 0 0 0
0 0 0 0 0 0 0 0 0 0 0 0 0 0 0 0 0 0 0 0 0 0 0 0 0 0 0 0 0 0 0 0 0 0 0 0 0 0 0 0 0 0 0 0
0 0 0 0 0 0 0 0 0 0 0 0 0 0 0 0 0 0 0 0 0 0 0 0 0 0 0 0 0 0 0 0 0 0 0 0 0 0 0 0 0 0 0 0
0 0 0 0 0 0 0 0 0 0 0 0 0 0 0 0 0 0 0 0 0 0 0 0 0 0 0 0 0 0 0 0 0 0 0 0 0 0 0 0 0 0 0 0
0 0 0 0 0 0 0 0 0 0 0 0 0 0 0 0 0 0 0 0 0 0 0 0 0 0 0 0 0 0 0 0 0 0 0 0 0 0 0 0 0 0 0 0
0 0 0 0 0 0 0 0 0 0 0 0 0 0 0 0 0 0 0 0 0 0 0 0 0 0 0 0 0 0 0 0 0 0 0 0 0 0 0 0 0 0 0 0
0 0 0 0 0 0 0 0 0 0 0 0 0 0 0 0 0 0 0 0 0 0 0 0 0 0 0 0 0 0 0 0 0 0 0 0 0 0 0 0 0 0 0 0
0 0 0 0 0 0 0 0 0 0 0 0 0 0 0 0 0 0 0 0 0 0 0 0 0 0 0 0 0 0 0 0 0 0 0 0 0 0 0 0 0 0 0 0
0 0 0 0 0 0 0 0 0 0 0 0 0 0 0 0 0 0 0 0 0 0 0 0 0 0 0 0 0 0 0 0 0 0 0 0 0 0 0 0 0 0 0 0
0 0 0 0 0 0 0 0 0 0 0 0 0 0 0 0 0 0 0 0 0 0 0 0 0 0 0 0 0 0 0 0 0 0 0 0 0 0 0 0 0 0 0 0
0 0 0 0 0 0 0 0 0 0 0 0 0 0 0 0 0 0 0 0 0 0 0 0 0 0 0 0 0 0 0 0 0 0 0 0 0 0 0 0 0 0 0 0
0 0 0 0 0 0 0 0 0 0 0 0 0 0 0 0 0 0 0 0 0 0 0 0 0 0 0 0 0 0 0 0 0 0 0 0 0 0 0 0 0 0 0 0
0 0 0 0 0 0 0 0 0 0 0 0 0 0 0 0 0 0 0 0 0 0 0 0 0 0 0 0 0 0 0 0 0 0 0 0 0 0 0 0 0 0 0 0
0 0 0 0 0 0 0 0 0 0 0 0 0 0 0 0 0 0 0 0 0 0 0 0 0 0 0 0 0 0 0 0 0 0 0 0 0 0 0 0 0 0 0 0
0 0 0 0 0 0 0 0 0 0 0 0 0 0 0 0 0 0 0 0 0 0 0 0 0 0 0 0 0 0 0 0 0 0 0 0 0 0 0 0 0 0 0 0
0 0 0 0 0 0 0 0 0 0 0 0 0 0 0 0 0 0 0 0 0 0 0 0 0 0 0 0 0 0 0 0 0 0 0 0 0 0 0 0 0 0 0 0
0 0 0 0 0 0 0 0 0 0 0 0 0 0 0 0 0 0 0 0 0 0 0 0 0 0 0 0 0 0 0 0 0 0 0 0 0 0 0 0 0 0 0 0
0 0 0 0 0 0 0 0 0 0 0 0 0 0 0 0 0 0 0 0 0 0 0 0 0 0 0 0 0 0 0 0 0 0 0 0 0 0 0 0 0 0 0 0
0 0 0 0 0 0 0 0 0 0 0 0 0 0 0 0 0 0 0 0 0 0 0 0 0 0 0 0 0 0 0 0 0 0 0 0 0 0 0 0 0 0 0 0
0 0 0 0 0 0 0 0 0 0 0 0 0 0 0 0 0 0 0 0 0 0 0 0 0 0 0 0 0 0 0 0 0 0 0 0 0 0 0 0 0 0 0 0
0 0 0 0 0 0 0 0 0 0 0 0 0 0 0 0 0 0 0 0 0 0 0 0 0 0 0 0 0 0 0 0 0 0 0 0 0 0 0 0 0 0 0 0
0 0 0 0 0 0 0 0 0 0 0 0 0 0 0 0 0 0 0 0 0 0 0 0 0 0 0 0 0 0 0 0 0 0 0 0 0 0 0 0 0 0 0 0
Wind_Speed
6 8 4 2 2 2 2 2 3 4 2 3 5 6 8 6 6 6 6 6 6 5 4 4 2 2 3 6 6 6 6 7 6 6 7 8 8 8 7 7 9 10 11 12
7 4 3 3 2 3 3 4 2 2 1 2 2 5 6 5 6 7 7 7 6 5 4 3 1 3 5 4 5 5 6 6 6 5 5 5 6 5 6 6 7 9 11 11
6 1 3 4 7 6 4 2 2 3 2 1 0 1 4 3 3 4 4 5 5 6 5 2 1 3 2 3 4 6 6 6 6 7 5 7 4 4 5 6 6 8 10 10
4 4 4 5 4 3 0 2 2 2 2 3 1 5 5 6 4 4 4 4 4 4 4 2 1 1 1 2 3 5 6 6 6 6 6 9 9 8 8 6 7 9 9 9
3 3 5 4 2 1 3 2 2 1 1 1 1 2 5 4 6 6 5 5 5 5 4 2 1 1 1 3 4 5 5 5 6 6 7 7 7 6 7 8 9 8 7 8
2 1 1 1 3 2 2 3 2 4 3 3 4 5 6 6 7 6 5 5 5 5 3 2 1 2 3 4 5 5 6 6 6 7 7 8 9 9 11 11 9 8 7 6
2 2 3 3 3 5 6 6 6 6 4 5 2 4 7 3 4 7 8 7 6 5 3 1 3 4 5 6 6 6 6 6 7 7 7 8 8 8 10 11 10 11 9 8
1 3 2 2 1 1 3 3 3 3 5 7 4 5 4 4 3 5 7 7 5 4 2 3 3 4 5 6 6 6 7 7 7 8 8 7 7 7 7 9 10 11 10 10
2 2 1 0 1 1 1 2 4 4 2 5 7 6 4 3 4 5 6 5 5 4 3 3 4 4 5 6 6 6 7 7 8 8 8 7 8 8 9 9 9 8 10 11
1 2 2 1 1 1 1 4 4 2 2 6 8 7 5 9 11 7 6 6 4 3 3 3 4 4 4 5 5 6 6 7 8 8 8 11 9 10 10 10 11 11 12 12
1 2 3 2 2 2 1 2 3 3 3 3 6 10 4 10 10 9 7 6 6 4 3 2 3 4 4 5 5 6 7 8 8 9 8 9 10 10 10 10 11 11 11 12
2 3 3 5 2 0 2 3 4 2 3 4 4 11 1 5 7 8 8 6 6 4 3 1 2 4 5 6 6 7 8 8 9 9 9 10 10 10 10 11 11 11 12 12
1 3 3 6 3 1 2 3 4 4 2 3 4 10 2 3 5 7 8 7 5 4 2 0 2 4 5 6 7 7 8 8 9 9 9 10 10 10 11 11 12 12 12 13
3 2 4 5 6 3 4 4 5 5 4 5 10 10 4 6 6 7 7 7 5 3 2 0 2 4 5 6 7 7 8 8 9 9 9 10 10 11 11 11 12 12 12 12
3 2 4 7 6 4 6 7 7 9 8 10 11 8 7 10 11 10 8 7 5 4 1 1 3 4 5 6 7 7 8 8 9 9 9 10 10 10 11 11 11 11 12 14
2 1 2 5 3 4 6 8 7 8 7 10 11 14 2 6 7 8 7 7 5 4 1 2 3 5 6 6 7 7 8 8 8 8 9 10 11 11 11 10 10 12 12 13
2 1 1 6 7 7 8 6 8 7 9 9 10 8 7 6 9 10 8 7 6 4 2 2 3 4 5 5 6 7 8 8 8 8 9 10 10 11 11 11 11 11 11 11
4 3 2 3 7 5 7 1 5 7 9 9 8 5 10 6 6 5 6 7 6 5 3 0 2 3 4 5 5 6 7 7 8 8 9 9 9 10 10 10 10 9 8 9
2 4 2 1 3 12 10 4 5 5 10 7 8 6 7 10 6 1 4 6 6 5 4 2 1 2 3 5 5 6 7 7 7 8 9 9 9 9 10 10 9 7 7 7
4 5 4 3 2 8 8 2 2 3 9 6 9 11 11 11 4 6 9 7 6 5 4 2 0 1 3 4 5 6 7 7 8 9 9 9 9 9 9 9 8 6 6 8
2 2 3 5 6 14 7 5 5 3 9 4 9 11 14 11 6 7 11 7 6 5 4 3 1 1 3 4 4 5 6 7 8 8 8 8 9 8 8 8 7 7 8 8
9 7 6 5 5 14 6 9 11 12 2 5 8 8 9 7 9 11 10 8 7 6 4 3 2 2 3 4 4 5 6 7 7 7 7 8 8 8 9 7 7 6 7 6
9 11 9 13 14 7 11 12 8 5 7 7 8 7 10 10 9 10 9 8 7 6 4 3 2 2 3 4 3 4 6 7 7 7 7 7 7 6 7 6 6 6 6 4
6 5 5 8 15 9 10 9 5 7 7 7 7 10 11 11 10 10 10 8 7 6 4 3 2 2 2 4 4 4 6 6 6 7 7 7 6 6 6 6 6 5 5 5
8 8 6 9 12 8 8 10 9 7 7 8 7 8 11 13 11 10 9 9 7 6 4 4 3 1 2 3 4 5 5 6 6 6 6 7 7 6 6 6 5 7 4 8
9 12 11 13 12 9 8 7 12 11 10 12 11 9 8 10 12 11 9 8 7 6 5 4 3 1 1 2 4 5 5 5 5 6 6 5 5 5 6 6 7 12 13 16
Wind_Direction
28 61 53 314 259 225 232 145 173 216 211 195 199 185 200 193 154 161 174 169 161 154 137 128 117 99 49 31 16 4 351 344 348 349 351 347 345 341 341 342 343 343 342 340
46 46 295 303 13 54 73 107 149 233 240 227 199 203 203 197 179 179 176 168 163 146 136 148 126 57 41 15 350 353 350 345 346 342 333 329 323 320 328 325 328 334 337 336
104 300 319 61 40 53 53 98 200 220 207 249 186 245 187 217 178 180 154 149 152 146 149 157 85 58 20 343 340 360 348 343 341 336 334 335 321 314 327 326 330 332 331 330
72 4 42 63 50 53 235 215 220 160 142 286 167 294 215 200 203 195 164 143 137 133 142 139 94 88 310 320 338 350 343 338 336 338 344 344 344 334 329 324 320 321 322 323
48 22 42 37 335 313 261 243 225 168 171 318 263 246 278 170 214 213 187 165 153 152 150 135 141 170 353 348 349 344 337 332 332 337 337 334 329 320 320 323 320 317 316 318
71 26 70 313 295 282 311 39 69 60 76 302 216 183 259 204 212 185 173 166 161 161 150 137 113 41 6 355 347 341 336 328 331 334 332 328 326 324 327 328 325 325 320 317
13 351 7 8 2 8 39 53 18 353 355 272 204 196 253 214 200 169 168 172 169 164 154 97 41 15 355 349 342 337 336 332 334 335 331 326 326 323 323 326 327 327 326 324
199 297 320 19 72 335 359 103 123 266 271 292 313 249 259 213 195 151 149 156 159 154 118 66 43 12 349 346 342 339 339 337 337 336 331 325 325 323 321 321 322 323 322 319
155 259 260 259 14 143 82 117 160 154 288 284 284 282 288 214 210 166 155 155 156 136 89 62 32 9 356 346 342 339 341 340 338 335 328 326 326 319 316 315 316 318 319 319
143 271 283 256 358 260 149 147 95 121 300 294 292 281 248 205 213 195 179 172 157 134 93 59 22 1 348 339 336 340 344 338 331 329 325 337 323 317 316 318 320 320 318 317
139 171 300 333 227 232 177 190 147 139 176 219 288 276 232 196 189 185 183 171 162 154 113 52 5 346 338 338 342 344 343 338 332 327 320 322 320 319 319 319 319 318 315 316
79 120 276 267 212 162 237 212 157 178 258 210 245 275 68 158 159 156 157 157 157 142 116 65 349 339 340 345 346 347 342 336 329 326 326 327 324 323 322 321 319 318 316 317
104 115 356 345 334 234 225 209 173 141 144 213 230 267 109 124 133 144 150 157 154 140 128 21 340 340 342 346 346 344 338 331 328 330 331 328 327 327 325 322 320 320 321 321
104 142 184 231 251 254 244 218 180 150 196 237 236 255 207 194 172 161 161 160 156 154 152 347 341 340 343 345 342 338 332 330 336 336 331 330 330 328 324 323 322 324 326 327
109 210 255 261 273 268 249 235 203 196 203 219 249 250 242 202 180 171 166 164 165 172 168 18 356 346 345 344 339 335 330 331 333 332 334 333 330 327 327 327 328 331 336 338
114 190 312 293 317 308 269 251 222 222 221 238 262 271 239 127 125 148 165 169 174 180 155 30 3 352 346 338 333 331 330 330 330 331 332 331 334 334 333 332 337 340 340 338
152 120 14 290 316 340 296 247 193 215 217 208 231 237 147 153 170 174 175 177 178 169 132 44 355 336 327 325 326 329 327 325 330 330 331 334 334 335 335 339 342 341 338 338
145 123 116 312 353 290 251 187 193 224 247 221 232 192 174 157 139 139 158 170 173 159 141 77 327 320 317 322 328 327 325 328 330 332 333 335 335 334 335 339 340 335 333 338
104 138 125 98 299 281 292 235 203 221 276 223 202 160 126 114 98 180 190 170 168 156 152 170 239 284 317 331 333 334 332 331 334 339 338 336 336 337 339 342 339 333 331 335
60 86 118 140 225 256 256 164 129 74 280 232 168 158 153 148 176 219 176 161 153 146 141 150 192 335 346 337 340 344 336 336 341 340 336 335 339 338 338 340 335 333 332 343
118 109 165 185 235 265 252 152 131 198 259 178 162 162 165 185 190 149 145 149 151 146 144 140 108 28 345 336 351 349 337 335 331 331 333 338 339 335 341 337 332 334 340 340
176 172 195 165 216 259 192 147 190 217 157 152 156 156 153 141 122 135 145 149 151 148 150 149 113 33 350 351 0 347 334 320 322 328 334 334 334 338 349 331 329 332 333 330
197 192 185 194 221 240 176 200 211 160 168 171 159 150 137 139 150 153 154 156 157 159 165 161 126 54 1 353 358 339 318 317 324 329 330 328 330 330 333 326 327 332 334 328
244 183 194 247 262 249 222 234 211 186 180 166 151 148 151 151 156 157 159 161 161 164 168 162 128 68 1 340 341 322 312 319 324 327 324 326 329 329 327 332 339 333 331 334
222 177 214 254 270 288 256 222 198 173 148 138 137 149 154 148 155 162 162 165 166 167 168 159 142 116 326 326 328 322 317 321 324 321 321 325 332 324 323 331 330 336 320 344
197 185 192 232 227 207 238 211 171 161 165 158 146 143 150 156 159 159 163 164 163 166 166 162 158 171 291 317 319 315 314 315 319 325 323 316 319 327 329 323 326 340 348 348